Station Historical Data
Daily Summary for August 14, 2017 Units:  English    Metric   Both
« Previous Day
Next Day »
Daily Weekly Monthly Yearly Custom
  High: Low: Average:
Temperature: 80.5 °F 63.4 °F 70.4 °F
Dew Point: 58.5 °F 46.5 °F 53.1 °F
Humidity: 70 % 45 % 55 %
Wind Speed: 17.0 mph 0.0 mph 2.8 mph
Wind Gust: 21.0 mph - -
Wind:- - SSE
Pressure: 29.81 in 29.75 in -
Precipitation: 0.00 in    
Historical Graphs
 
 
Tabular Data for August 14, 2017
Time Temperature Dew Point Pressure Wind Wind Speed Wind Gust Humidity Rainfall Rate (Hourly) solar
00:02 69.9 °F 51.0 °F 29.80 in SE 8.0 mph 12.0 mph 51 % 0.00 in 0.00 W/m2
00:07 69.7 °F 50.2 °F 29.80 in SE 9.0 mph 14.0 mph 50 % 0.00 in 0.00 W/m2
00:12 69.6 °F 50.2 °F 29.80 in SE 9.0 mph 9.0 mph 50 % 0.00 in 0.00 W/m2
00:17 69.4 °F 50.0 °F 29.79 in SE 7.0 mph 11.0 mph 50 % 0.00 in 0.00 W/m2
00:22 69.3 °F 50.4 °F 29.80 in SE 13.0 mph 13.0 mph 51 % 0.00 in 0.00 W/m2
00:27 69.2 °F 49.8 °F 29.80 in SE 6.0 mph 14.0 mph 50 % 0.00 in 0.00 W/m2
00:32 69.1 °F 49.7 °F 29.79 in SE 7.0 mph 13.0 mph 50 % 0.00 in 0.00 W/m2
00:37 69.0 °F 49.6 °F 29.79 in ESE 7.0 mph 13.0 mph 50 % 0.00 in 0.00 W/m2
00:42 69.0 °F 49.6 °F 29.79 in SE 6.0 mph 14.0 mph 50 % 0.00 in 0.00 W/m2
00:47 68.9 °F 49.5 °F 29.79 in SE 6.0 mph 11.0 mph 50 % 0.00 in 0.00 W/m2
00:52 68.9 °F 49.5 °F 29.79 in Calm   1.0 mph 50 % 0.00 in 0.00 W/m2
00:57 68.9 °F 49.5 °F 29.79 in SE 4.0 mph 13.0 mph 50 % 0.00 in 0.00 W/m2
01:02 68.9 °F 49.0 °F 29.79 in SE 5.0 mph 13.0 mph 49 % 0.00 in 0.00 W/m2
01:07 68.9 °F 49.0 °F 29.78 in SE 11.0 mph 13.0 mph 49 % 0.00 in 0.00 W/m2
01:12 68.9 °F 49.0 °F 29.78 in ESE 6.0 mph 11.0 mph 49 % 0.00 in 0.00 W/m2
01:17 68.9 °F 49.0 °F 29.79 in SE 8.0 mph 12.0 mph 49 % 0.00 in 0.00 W/m2
01:22 68.9 °F 49.0 °F 29.79 in Calm   1.0 mph 49 % 0.00 in 0.00 W/m2
01:27 68.9 °F 49.0 °F 29.78 in SE 8.0 mph 12.0 mph 49 % 0.00 in 0.00 W/m2
01:32 68.8 °F 48.9 °F 29.78 in SE 11.0 mph 11.0 mph 49 % 0.00 in 0.00 W/m2
01:37 68.8 °F 48.9 °F 29.78 in SE 2.0 mph 12.0 mph 49 % 0.00 in 0.00 W/m2
01:42 68.8 °F 48.9 °F 29.78 in Calm   7.0 mph 49 % 0.00 in 0.00 W/m2
01:47 68.8 °F 48.9 °F 29.78 in Calm   1.0 mph 49 % 0.00 in 0.00 W/m2
01:52 68.7 °F 48.2 °F 29.78 in SE 6.0 mph 11.0 mph 48 % 0.00 in 0.00 W/m2
01:58 68.6 °F 48.2 °F 29.78 in SE 6.0 mph 12.0 mph 48 % 0.00 in 0.00 W/m2
02:03 68.5 °F 48.1 °F 29.78 in SE 4.0 mph 12.0 mph 48 % 0.00 in 0.00 W/m2
02:08 68.5 °F 48.6 °F 29.78 in SE 7.0 mph 10.0 mph 49 % 0.00 in 0.00 W/m2
02:13 68.4 °F 48.0 °F 29.78 in SE 7.0 mph 11.0 mph 48 % 0.00 in 0.00 W/m2
02:18 68.3 °F 47.9 °F 29.77 in SE 7.0 mph 11.0 mph 48 % 0.00 in 0.00 W/m2
02:23 68.2 °F 47.8 °F 29.77 in SE 5.0 mph 13.0 mph 48 % 0.00 in 0.00 W/m2
02:28 68.1 °F 47.7 °F 29.77 in SE 1.0 mph 11.0 mph 48 % 0.00 in 0.00 W/m2
02:33 68.1 °F 47.7 °F 29.77 in SE 4.0 mph 9.0 mph 48 % 0.00 in 0.00 W/m2
02:38 68.0 °F 47.6 °F 29.77 in SE 5.0 mph 10.0 mph 48 % 0.00 in 0.00 W/m2
02:43 68.0 °F 47.6 °F 29.77 in SE 5.0 mph 10.0 mph 48 % 0.00 in 0.00 W/m2
02:48 67.9 °F 47.5 °F 29.77 in SE 7.0 mph 11.0 mph 48 % 0.00 in 0.00 W/m2
02:53 67.9 °F 47.5 °F 29.77 in SE 9.0 mph 17.0 mph 48 % 0.00 in 0.00 W/m2
02:58 67.8 °F 47.4 °F 29.77 in SE 6.0 mph 13.0 mph 48 % 0.00 in 0.00 W/m2
03:03 67.7 °F 47.3 °F 29.77 in SE 4.0 mph 11.0 mph 48 % 0.00 in 0.00 W/m2
03:08 67.6 °F 47.2 °F 29.77 in SE 7.0 mph 9.0 mph 48 % 0.00 in 0.00 W/m2
03:13 67.6 °F 47.2 °F 29.77 in SE 5.0 mph 9.0 mph 48 % 0.00 in 0.00 W/m2
03:18 67.5 °F 47.1 °F 29.77 in Calm   11.0 mph 48 % 0.00 in 0.00 W/m2
03:23 67.5 °F 47.1 °F 29.78 in Calm   1.0 mph 48 % 0.00 in 0.00 W/m2
03:28 67.5 °F 47.1 °F 29.78 in Calm   1.0 mph 48 % 0.00 in 0.00 W/m2
03:33 67.5 °F 47.1 °F 29.77 in Calm   1.0 mph 48 % 0.00 in 0.00 W/m2
03:38 67.5 °F 47.1 °F 29.78 in Calm   1.0 mph 48 % 0.00 in 0.00 W/m2
03:43 67.5 °F 47.1 °F 29.77 in Calm   1.0 mph 48 % 0.00 in 0.00 W/m2
03:48 67.4 °F 47.0 °F 29.78 in SE 1.0 mph 2.0 mph 48 % 0.00 in 0.00 W/m2
03:53 67.5 °F 47.1 °F 29.78 in SE 5.0 mph 13.0 mph 48 % 0.00 in 0.00 W/m2
03:58 67.4 °F 47.0 °F 29.77 in SSE 7.0 mph 13.0 mph 48 % 0.00 in 0.00 W/m2
04:03 67.4 °F 47.0 °F 29.78 in SE 5.0 mph 14.0 mph 48 % 0.00 in 0.00 W/m2
04:08 67.4 °F 47.0 °F 29.78 in SE 7.0 mph 11.0 mph 48 % 0.00 in 0.00 W/m2
04:13 67.5 °F 47.1 °F 29.77 in SE 7.0 mph 10.0 mph 48 % 0.00 in 0.00 W/m2
04:18 67.4 °F 46.5 °F 29.77 in SE 7.0 mph 13.0 mph 47 % 0.00 in 0.00 W/m2
04:23 67.5 °F 46.6 °F 29.77 in SE 2.0 mph 12.0 mph 47 % 0.00 in 0.00 W/m2
04:28 67.5 °F 46.6 °F 29.77 in SE 7.0 mph 9.0 mph 47 % 0.00 in 0.00 W/m2
04:33 67.5 °F 46.6 °F 29.77 in SE 5.0 mph 12.0 mph 47 % 0.00 in 0.00 W/m2
04:38 67.5 °F 46.6 °F 29.77 in SE 9.0 mph 11.0 mph 47 % 0.00 in 0.00 W/m2
04:39 67.5 °F 46.6 °F 29.77 in SE 9.0 mph 12.0 mph 47 % 0.00 in 0.00 W/m2
04:44 67.5 °F 46.6 °F 29.76 in SE 8.0 mph 12.0 mph 47 % 0.00 in 0.00 W/m2
04:49 67.5 °F 47.1 °F 29.76 in SE 4.0 mph 15.0 mph 48 % 0.00 in 0.00 W/m2
04:54 67.4 °F 47.6 °F 29.76 in SE 10.0 mph 14.0 mph 49 % 0.00 in 0.00 W/m2
04:59 67.4 °F 47.6 °F 29.76 in SSE 6.0 mph 15.0 mph 49 % 0.00 in 0.00 W/m2
05:04 67.4 °F 48.1 °F 29.76 in SE 17.0 mph 18.0 mph 50 % 0.00 in 0.00 W/m2
05:09 67.3 °F 48.0 °F 29.76 in SSE 9.0 mph 15.0 mph 50 % 0.00 in 0.00 W/m2
05:14 67.3 °F 48.0 °F 29.76 in SE 6.0 mph 14.0 mph 50 % 0.00 in 0.00 W/m2
05:19 67.2 °F 48.0 °F 29.76 in SE 1.0 mph 14.0 mph 50 % 0.00 in 0.00 W/m2
05:24 67.2 °F 48.5 °F 29.76 in SE 4.0 mph 12.0 mph 51 % 0.00 in 0.00 W/m2
05:29 67.2 °F 48.5 °F 29.76 in SE 7.0 mph 12.0 mph 51 % 0.00 in 0.00 W/m2
05:35 67.1 °F 48.4 °F 29.76 in SE 8.0 mph 13.0 mph 51 % 0.00 in 0.00 W/m2
05:40 67.0 °F 48.3 °F 29.76 in SE 6.0 mph 13.0 mph 51 % 0.00 in 0.00 W/m2
05:45 66.9 °F 48.7 °F 29.76 in SE 6.0 mph 12.0 mph 52 % 0.00 in 0.00 W/m2
05:50 66.8 °F 48.6 °F 29.75 in SE 5.0 mph 15.0 mph 52 % 0.00 in 0.00 W/m2
05:55 66.7 °F 48.5 °F 29.76 in SE 5.0 mph 13.0 mph 52 % 0.00 in 0.00 W/m2
06:00 66.6 °F 48.4 °F 29.76 in SE 7.0 mph 10.0 mph 52 % 0.00 in 0.00 W/m2
06:05 66.6 °F 48.4 °F 29.76 in SE 8.0 mph 13.0 mph 52 % 0.00 in 0.00 W/m2
06:10 66.5 °F 48.3 °F 29.75 in SE 7.0 mph 10.0 mph 52 % 0.00 in 0.00 W/m2
06:15 66.4 °F 47.7 °F 29.75 in SE 7.0 mph 11.0 mph 51 % 0.00 in 0.00 W/m2
06:20 66.3 °F 47.7 °F 29.76 in SE 6.0 mph 13.0 mph 51 % 0.00 in 5.00 W/m2
06:25 66.2 °F 47.6 °F 29.76 in SE 6.0 mph 12.0 mph 51 % 0.00 in 9.00 W/m2
06:30 66.1 °F 47.5 °F 29.76 in SE 8.0 mph 12.0 mph 51 % 0.00 in 11.00 W/m2
06:35 66.0 °F 46.8 °F 29.76 in SE 10.0 mph 11.0 mph 50 % 0.00 in 12.00 W/m2
06:37 66.0 °F 46.8 °F 29.76 in SE 7.0 mph 10.0 mph 50 % 0.00 in 14.00 W/m2
06:42 65.9 °F 47.3 °F 29.76 in SE 5.0 mph 11.0 mph 51 % 0.00 in 25.00 W/m2
06:47 65.9 °F 47.3 °F 29.76 in SE 6.0 mph 9.0 mph 51 % 0.00 in 30.00 W/m2
06:52 65.9 °F 47.8 °F 29.77 in Calm   8.0 mph 52 % 0.00 in 28.00 W/m2
06:57 65.9 °F 47.3 °F 29.77 in Calm     51 % 0.00 in 28.00 W/m2
07:03 65.9 °F 47.8 °F 29.77 in Calm     52 % 0.00 in 23.00 W/m2
07:07 65.9 °F 47.8 °F 29.77 in Calm     52 % 0.00 in 26.00 W/m2
07:12 66.0 °F 47.9 °F 29.77 in Calm     52 % 0.00 in 28.00 W/m2
07:17 66.0 °F 47.9 °F 29.77 in Calm     52 % 0.00 in 30.00 W/m2
07:22 66.1 °F 48.0 °F 29.78 in Calm     52 % 0.00 in 39.00 W/m2
07:28 66.1 °F 49.0 °F 29.78 in Calm     54 % 0.00 in 49.00 W/m2
07:33 66.0 °F 48.9 °F 29.79 in Calm     54 % 0.00 in 58.00 W/m2
07:38 65.9 °F 49.3 °F 29.79 in Calm     55 % 0.00 in 60.00 W/m2
07:43 65.9 °F 49.8 °F 29.79 in Calm     56 % 0.00 in 58.00 W/m2
07:48 65.8 °F 49.7 °F 29.78 in Calm     56 % 0.00 in 65.00 W/m2
07:53 65.7 °F 50.5 °F 29.78 in Calm     58 % 0.00 in 79.00 W/m2
07:58 65.7 °F 50.5 °F 29.78 in Calm     58 % 0.00 in 84.00 W/m2
08:03 65.7 °F 51.0 °F 29.78 in Calm     59 % 0.00 in 90.00 W/m2
08:08 65.7 °F 51.5 °F 29.78 in Calm     60 % 0.00 in 104.00 W/m2
08:13 65.7 °F 51.5 °F 29.78 in Calm   1.0 mph 60 % 0.00 in 128.00 W/m2
08:18 65.7 °F 51.5 °F 29.78 in SSE 1.0 mph 1.0 mph 60 % 0.00 in 151.00 W/m2
08:23 65.7 °F 51.0 °F 29.78 in Calm   1.0 mph 59 % 0.00 in 186.00 W/m2
08:28 65.8 °F 51.1 °F 29.78 in SSE 1.0 mph 1.0 mph 59 % 0.00 in 190.00 W/m2
08:33 65.9 °F 51.6 °F 29.78 in Calm   2.0 mph 60 % 0.00 in 162.00 W/m2
08:38 65.9 °F 51.6 °F 29.78 in SSE 10.0 mph 11.0 mph 60 % 0.00 in 169.00 W/m2
08:43 66.0 °F 52.2 °F 29.78 in SSE 5.0 mph 14.0 mph 61 % 0.00 in 185.00 W/m2
08:48 66.1 °F 52.7 °F 29.79 in SSE 5.0 mph 13.0 mph 62 % 0.00 in 178.00 W/m2
08:53 66.1 °F 52.7 °F 29.78 in SSE 7.0 mph 11.0 mph 62 % 0.00 in 192.00 W/m2
08:58 66.2 °F 53.2 °F 29.78 in South 9.0 mph 11.0 mph 63 % 0.00 in 227.00 W/m2
09:03 66.2 °F 53.7 °F 29.78 in South 4.0 mph 14.0 mph 64 % 0.00 in 239.00 W/m2
09:08 66.3 °F 53.8 °F 29.78 in SSE 9.0 mph 13.0 mph 64 % 0.00 in 214.00 W/m2
09:13 66.3 °F 53.8 °F 29.79 in SSE 6.0 mph 12.0 mph 64 % 0.00 in 204.00 W/m2
09:18 66.4 °F 54.3 °F 29.79 in Calm   11.0 mph 65 % 0.00 in 204.00 W/m2
09:23 66.4 °F 54.3 °F 29.79 in Calm   1.0 mph 65 % 0.00 in 221.00 W/m2
09:28 66.5 °F 54.4 °F 29.80 in South 1.0 mph 2.0 mph 65 % 0.00 in 294.00 W/m2
09:33 66.6 °F 54.5 °F 29.80 in Calm   2.0 mph 65 % 0.00 in 754.00 W/m2
09:38 66.7 °F 54.6 °F 29.80 in SSE 9.0 mph 13.0 mph 65 % 0.00 in 353.00 W/m2
09:43 66.8 °F 54.7 °F 29.80 in Calm   9.0 mph 65 % 0.00 in 329.00 W/m2
09:48 66.9 °F 54.8 °F 29.80 in SSE 1.0 mph 1.0 mph 65 % 0.00 in 229.00 W/m2
09:53 67.0 °F 54.9 °F 29.80 in Calm   1.0 mph 65 % 0.00 in 267.00 W/m2
09:58 67.1 °F 55.0 °F 29.80 in South 1.0 mph 1.0 mph 65 % 0.00 in 390.00 W/m2
10:03 67.2 °F 55.0 °F 29.80 in Calm   2.0 mph 65 % 0.00 in 654.00 W/m2
10:08 67.4 °F 55.2 °F 29.81 in Calm   1.0 mph 65 % 0.00 in 656.00 W/m2
10:13 67.5 °F 55.3 °F 29.80 in South 6.0 mph 11.0 mph 65 % 0.00 in 666.00 W/m2
10:18 67.7 °F 55.1 °F 29.81 in SSE 2.0 mph 6.0 mph 64 % 0.00 in 680.00 W/m2
10:23 68.0 °F 55.4 °F 29.80 in SSE 12.0 mph 14.0 mph 64 % 0.00 in 696.00 W/m2
10:28 68.3 °F 55.2 °F 29.80 in SSE 1.0 mph 12.0 mph 63 % 0.00 in 622.00 W/m2
10:33 68.6 °F 55.5 °F 29.80 in SSE 8.0 mph 15.0 mph 63 % 0.00 in 819.00 W/m2
10:38 68.9 °F 55.4 °F 29.80 in South 9.0 mph 14.0 mph 62 % 0.00 in 547.00 W/m2
10:43 69.2 °F 55.6 °F 29.80 in SSE 6.0 mph 10.0 mph 62 % 0.00 in 809.00 W/m2
10:48 69.5 °F 55.5 °F 29.80 in SE 15.0 mph 15.0 mph 61 % 0.00 in 561.00 W/m2
10:53 69.8 °F 55.8 °F 29.80 in SSE 11.0 mph 14.0 mph 61 % 0.00 in 555.00 W/m2
10:58 70.1 °F 55.6 °F 29.80 in South 9.0 mph 11.0 mph 60 % 0.00 in 545.00 W/m2
11:03 70.4 °F 55.9 °F 29.80 in South 6.0 mph 13.0 mph 60 % 0.00 in 826.00 W/m2
11:08 70.8 °F 55.8 °F 29.80 in SSE 6.0 mph 13.0 mph 59 % 0.00 in 768.00 W/m2
11:13 71.2 °F 55.7 °F 29.80 in Calm   10.0 mph 58 % 0.00 in 708.00 W/m2
11:18 71.6 °F 56.1 °F 29.80 in SSE 1.0 mph 2.0 mph 58 % 0.00 in 802.00 W/m2
11:23 72.1 °F 56.0 °F 29.79 in South 11.0 mph 13.0 mph 57 % 0.00 in 805.00 W/m2
11:28 72.5 °F 56.4 °F 29.80 in Calm   10.0 mph 57 % 0.00 in 810.00 W/m2
11:33 73.0 °F 56.4 °F 29.80 in South 6.0 mph 10.0 mph 56 % 0.00 in 810.00 W/m2
11:38 73.5 °F 56.9 °F 29.80 in Calm   2.0 mph 56 % 0.00 in 821.00 W/m2
11:43 74.0 °F 55.3 °F 29.80 in SSE 4.0 mph 17.0 mph 52 % 0.00 in 824.00 W/m2
11:48 74.4 °F 55.7 °F 29.80 in SSE 8.0 mph 14.0 mph 52 % 0.00 in 835.00 W/m2
11:54 74.9 °F 55.6 °F 29.80 in Calm   11.0 mph 51 % 0.00 in 837.00 W/m2
11:59 75.3 °F 55.9 °F 29.80 in South 1.0 mph 10.0 mph 51 % 0.00 in 840.00 W/m2
12:04 75.7 °F 56.3 °F 29.80 in Calm   13.0 mph 51 % 0.00 in 849.00 W/m2
12:09 76.1 °F 56.7 °F 29.79 in Calm   11.0 mph 51 % 0.00 in 853.00 W/m2
12:14 76.6 °F 56.0 °F 29.79 in SSW 8.0 mph 12.0 mph 49 % 0.00 in 856.00 W/m2
12:19 77.1 °F 57.6 °F 29.79 in Calm   4.0 mph 51 % 0.00 in 861.00 W/m2
12:24 77.6 °F 57.0 °F 29.79 in South 5.0 mph 15.0 mph 49 % 0.00 in 865.00 W/m2
12:29 78.1 °F 57.4 °F 29.79 in South 7.0 mph 13.0 mph 49 % 0.00 in 868.00 W/m2
12:34 78.4 °F 55.9 °F 29.79 in Calm   15.0 mph 46 % 0.00 in 875.00 W/m2
12:39 78.7 °F 56.2 °F 29.79 in Calm   16.0 mph 46 % 0.00 in 893.00 W/m2
12:44 78.9 °F 57.0 °F 29.79 in Calm   12.0 mph 47 % 0.00 in 881.00 W/m2
12:49 79.0 °F 57.7 °F 29.79 in SSW 9.0 mph 12.0 mph 48 % 0.00 in 786.00 W/m2
12:54 78.9 °F 57.0 °F 29.79 in SSW 2.0 mph 13.0 mph 47 % 0.00 in 795.00 W/m2
12:59 79.1 °F 56.6 °F 29.79 in Calm   13.0 mph 46 % 0.00 in 895.00 W/m2
13:04 79.4 °F 56.8 °F 29.79 in South 2.0 mph 13.0 mph 46 % 0.00 in 807.00 W/m2
13:09 79.7 °F 56.5 °F 29.79 in Calm   1.0 mph 45 % 0.00 in 861.00 W/m2
13:14 79.5 °F 56.9 °F 29.79 in SW 8.0 mph 12.0 mph 46 % 0.00 in 837.00 W/m2
13:19 79.5 °F 56.3 °F 29.79 in SSW 9.0 mph 14.0 mph 45 % 0.00 in 835.00 W/m2
13:24 79.5 °F 56.3 °F 29.79 in SSW 1.0 mph 16.0 mph 45 % 0.00 in 696.00 W/m2
13:29 79.7 °F 56.5 °F 29.79 in Calm   13.0 mph 45 % 0.00 in 812.00 W/m2
13:34 79.7 °F 57.1 °F 29.79 in Calm   16.0 mph 46 % 0.00 in 729.00 W/m2
13:39 79.7 °F 56.5 °F 29.79 in Calm   11.0 mph 45 % 0.00 in 475.00 W/m2
13:44 79.8 °F 56.6 °F 29.79 in SSW 12.0 mph 21.0 mph 45 % 0.00 in 882.00 W/m2
13:49 80.0 °F 56.8 °F 29.78 in SSW 10.0 mph 12.0 mph 45 % 0.00 in 914.00 W/m2
13:54 80.0 °F 56.8 °F 29.78 in Calm   7.0 mph 45 % 0.00 in 856.00 W/m2
13:59 80.1 °F 57.5 °F 29.78 in Calm   11.0 mph 46 % 0.00 in 881.00 W/m2
14:04 80.3 °F 57.7 °F 29.78 in Calm   1.0 mph 46 % 0.00 in 835.00 W/m2
14:09 80.5 °F 57.2 °F 29.78 in SW 15.0 mph 16.0 mph 45 % 0.00 in 861.00 W/m2
14:14 80.5 °F 57.2 °F 29.78 in SSW 1.0 mph 6.0 mph 45 % 0.00 in 863.00 W/m2
14:19 80.3 °F 57.0 °F 29.78 in Calm   3.0 mph 45 % 0.00 in 837.00 W/m2
14:24 80.5 °F 57.2 °F 29.78 in South 3.0 mph 10.0 mph 45 % 0.00 in 835.00 W/m2
14:29 80.4 °F 57.1 °F 29.79 in Calm   10.0 mph 45 % 0.00 in 786.00 W/m2
14:34 80.2 °F 57.0 °F 29.78 in SSW 1.0 mph 8.0 mph 45 % 0.00 in 728.00 W/m2
14:39 80.0 °F 56.8 °F 29.78 in SSW 9.0 mph 12.0 mph 45 % 0.00 in 789.00 W/m2
14:44 80.0 °F 57.4 °F 29.78 in Calm   8.0 mph 46 % 0.00 in 773.00 W/m2
14:49 80.1 °F 57.5 °F 29.78 in Calm   1.0 mph 46 % 0.00 in 849.00 W/m2
14:54 79.5 °F 57.5 °F 29.78 in SSW 1.0 mph 2.0 mph 47 % 0.00 in 821.00 W/m2
14:59 79.3 °F 57.9 °F 29.78 in Calm   10.0 mph 48 % 0.00 in 800.00 W/m2
15:04 78.8 °F 57.5 °F 29.78 in Calm   2.0 mph 48 % 0.00 in 784.00 W/m2
15:09 78.8 °F 57.5 °F 29.78 in Calm   3.0 mph 48 % 0.00 in 766.00 W/m2
15:14 78.8 °F 56.9 °F 29.77 in Calm   12.0 mph 47 % 0.00 in 754.00 W/m2
15:19 78.9 °F 57.0 °F 29.77 in Calm   13.0 mph 47 % 0.00 in 742.00 W/m2
15:24 78.9 °F 57.6 °F 29.77 in Calm   9.0 mph 48 % 0.00 in 733.00 W/m2
15:29 78.6 °F 57.3 °F 29.77 in Calm   2.0 mph 48 % 0.00 in 724.00 W/m2
15:34 78.6 °F 57.3 °F 29.77 in Calm   10.0 mph 48 % 0.00 in 710.00 W/m2
15:39 78.6 °F 57.9 °F 29.77 in Calm   3.0 mph 49 % 0.00 in 701.00 W/m2
15:44 78.5 °F 57.8 °F 29.77 in SW 7.0 mph 10.0 mph 49 % 0.00 in 689.00 W/m2
15:50 78.5 °F 57.8 °F 29.77 in Calm   2.0 mph 49 % 0.00 in 677.00 W/m2
15:55 78.3 °F 57.0 °F 29.77 in Calm   2.0 mph 48 % 0.00 in 661.00 W/m2
16:00 78.1 °F 57.4 °F 29.77 in Calm   7.0 mph 49 % 0.00 in 650.00 W/m2
16:05 77.8 °F 57.7 °F 29.77 in Calm   1.0 mph 50 % 0.00 in 638.00 W/m2
16:10 77.2 °F 57.1 °F 29.76 in Calm   2.0 mph 50 % 0.00 in 624.00 W/m2
16:15 76.9 °F 58.0 °F 29.76 in WSW 1.0 mph 2.0 mph 52 % 0.00 in 617.00 W/m2
16:20 76.9 °F 58.0 °F 29.76 in Calm   9.0 mph 52 % 0.00 in 605.00 W/m2
16:25 76.9 °F 57.4 °F 29.76 in Calm   13.0 mph 51 % 0.00 in 591.00 W/m2
16:30 77.0 °F 57.5 °F 29.76 in Calm   2.0 mph 51 % 0.00 in 575.00 W/m2
16:35 77.0 °F 58.0 °F 29.76 in SW 6.0 mph 11.0 mph 52 % 0.00 in 557.00 W/m2
16:40 76.9 °F 58.5 °F 29.76 in Calm   3.0 mph 53 % 0.00 in 547.00 W/m2
16:45 76.7 °F 58.3 °F 29.76 in Calm   2.0 mph 53 % 0.00 in 533.00 W/m2
16:50 76.6 °F 58.2 °F 29.76 in SW 9.0 mph 13.0 mph 53 % 0.00 in 519.00 W/m2
16:55 76.5 °F 58.1 °F 29.76 in Calm   2.0 mph 53 % 0.00 in 504.00 W/m2
16:58 76.5 °F 58.1 °F 29.76 in Calm   1.0 mph 53 % 0.00 in 494.00 W/m2
17:04 76.5 °F 58.1 °F 29.76 in SW 1.0 mph 2.0 mph 53 % 0.00 in 475.00 W/m2
17:09 76.4 °F 58.0 °F 29.76 in SW 6.0 mph 10.0 mph 53 % 0.00 in 462.00 W/m2
17:14 76.4 °F 58.5 °F 29.76 in Calm   1.0 mph 54 % 0.00 in 450.00 W/m2
17:19 76.2 °F 58.4 °F 29.77 in Calm   1.0 mph 54 % 0.00 in 436.00 W/m2
17:24 76.1 °F 58.3 °F 29.76 in Calm   1.0 mph 54 % 0.00 in 431.00 W/m2
17:29 76.0 °F 58.2 °F 29.76 in Calm   1.0 mph 54 % 0.00 in 424.00 W/m2
17:34 75.7 °F 57.9 °F 29.76 in Calm   2.0 mph 54 % 0.00 in 427.00 W/m2
17:39 75.5 °F 57.7 °F 29.76 in SSW 1.0 mph 2.0 mph 54 % 0.00 in 401.00 W/m2
17:44 75.5 °F 57.7 °F 29.76 in Calm   3.0 mph 54 % 0.00 in 399.00 W/m2
17:49 75.4 °F 58.1 °F 29.76 in SW 1.0 mph 4.0 mph 55 % 0.00 in 325.00 W/m2
17:54 75.3 °F 57.5 °F 29.76 in SW 1.0 mph 3.0 mph 54 % 0.00 in 322.00 W/m2
17:59 75.2 °F 57.4 °F 29.76 in Calm   2.0 mph 54 % 0.00 in 295.00 W/m2
18:04 75.1 °F 57.3 °F 29.76 in Calm   3.0 mph 54 % 0.00 in 294.00 W/m2
18:09 74.9 °F 57.2 °F 29.77 in Calm   3.0 mph 54 % 0.00 in 327.00 W/m2
18:14 74.9 °F 57.2 °F 29.76 in Calm   4.0 mph 54 % 0.00 in 357.00 W/m2
18:19 74.8 °F 56.5 °F 29.76 in Calm   3.0 mph 53 % 0.00 in 311.00 W/m2
18:24 74.7 °F 55.9 °F 29.76 in Calm   2.0 mph 52 % 0.00 in 269.00 W/m2
18:29 74.6 °F 56.4 °F 29.76 in SW 2.0 mph 2.0 mph 53 % 0.00 in 246.00 W/m2
18:34 74.5 °F 56.3 °F 29.76 in Calm   1.0 mph 53 % 0.00 in 216.00 W/m2
18:39 74.3 °F 55.6 °F 29.76 in Calm   1.0 mph 52 % 0.00 in 193.00 W/m2
18:44 74.1 °F 55.4 °F 29.76 in Calm   3.0 mph 52 % 0.00 in 172.00 W/m2
18:49 74.0 °F 55.8 °F 29.76 in Calm   2.0 mph 53 % 0.00 in 111.00 W/m2
18:54 73.8 °F 55.6 °F 29.76 in Calm   3.0 mph 53 % 0.00 in 127.00 W/m2
18:59 73.7 °F 55.5 °F 29.76 in Calm   2.0 mph 53 % 0.00 in 95.00 W/m2
19:04 73.5 °F 56.4 °F 29.76 in Calm     55 % 0.00 in 84.00 W/m2
19:09 73.3 °F 56.2 °F 29.76 in Calm     55 % 0.00 in 76.00 W/m2
19:12 73.2 °F 56.1 °F 29.76 in Calm     55 % 0.00 in 69.00 W/m2
19:17 73.0 °F 55.9 °F 29.76 in Calm     55 % 0.00 in 58.00 W/m2
19:22 72.8 °F 55.7 °F 29.76 in Calm     55 % 0.00 in 46.00 W/m2
19:27 72.7 °F 55.6 °F 29.76 in Calm     55 % 0.00 in 33.00 W/m2
19:32 72.5 °F 55.9 °F 29.77 in Calm     56 % 0.00 in 28.00 W/m2
19:37 72.3 °F 56.2 °F 29.77 in Calm     57 % 0.00 in 23.00 W/m2
19:42 72.1 °F 56.0 °F 29.77 in Calm     57 % 0.00 in 19.00 W/m2
19:47 71.9 °F 56.3 °F 29.77 in Calm     58 % 0.00 in 16.00 W/m2
19:52 71.4 °F 56.3 °F 29.76 in Calm     59 % 0.00 in 11.00 W/m2
19:57 70.7 °F 56.2 °F 29.77 in Calm     60 % 0.00 in 9.00 W/m2
20:02 70.1 °F 56.0 °F 29.77 in Calm     61 % 0.00 in 5.00 W/m2
20:07 69.6 °F 56.0 °F 29.77 in Calm     62 % 0.00 in 0.00 W/m2
20:13 69.4 °F 55.8 °F 29.77 in Calm     62 % 0.00 in 0.00 W/m2
20:18 69.0 °F 55.5 °F 29.77 in Calm     62 % 0.00 in 0.00 W/m2
20:23 68.3 °F 55.2 °F 29.78 in Calm     63 % 0.00 in 0.00 W/m2
20:28 68.0 °F 55.4 °F 29.78 in Calm     64 % 0.00 in 0.00 W/m2
20:30 67.9 °F 55.3 °F 29.78 in Calm     64 % 0.00 in 0.00 W/m2
20:35 67.4 °F 55.2 °F 29.78 in Calm     65 % 0.00 in 0.00 W/m2
20:40 67.1 °F 55.0 °F 29.78 in Calm     65 % 0.00 in 0.00 W/m2
20:45 66.9 °F 54.8 °F 29.78 in Calm     65 % 0.00 in 0.00 W/m2
20:50 66.6 °F 54.9 °F 29.78 in Calm     66 % 0.00 in 0.00 W/m2
20:55 66.5 °F 54.8 °F 29.78 in Calm     66 % 0.00 in 0.00 W/m2
21:00 66.2 °F 54.5 °F 29.78 in Calm     66 % 0.00 in 0.00 W/m2
21:05 65.9 °F 54.2 °F 29.78 in Calm     66 % 0.00 in 0.00 W/m2
21:10 65.8 °F 54.5 °F 29.78 in Calm     67 % 0.00 in 0.00 W/m2
21:15 65.6 °F 54.4 °F 29.78 in Calm     67 % 0.00 in 0.00 W/m2
21:20 65.4 °F 54.2 °F 29.78 in Calm     67 % 0.00 in 0.00 W/m2
21:25 65.3 °F 54.1 °F 29.78 in Calm     67 % 0.00 in 0.00 W/m2
21:30 65.2 °F 54.0 °F 29.78 in Calm     67 % 0.00 in 0.00 W/m2
21:31 65.2 °F 54.0 °F 29.78 in Calm     67 % 0.00 in 0.00 W/m2
21:36 65.2 °F 54.0 °F 29.78 in Calm     67 % 0.00 in 0.00 W/m2
21:41 65.1 °F 53.9 °F 29.78 in Calm     67 % 0.00 in 0.00 W/m2
21:46 65.0 °F 53.8 °F 29.78 in Calm     67 % 0.00 in 0.00 W/m2
21:51 64.8 °F 53.6 °F 29.78 in Calm     67 % 0.00 in 0.00 W/m2
21:56 64.6 °F 53.8 °F 29.78 in Calm     68 % 0.00 in 0.00 W/m2
22:01 64.5 °F 53.7 °F 29.78 in Calm     68 % 0.00 in 0.00 W/m2
22:06 64.3 °F 53.9 °F 29.78 in Calm     69 % 0.00 in 0.00 W/m2
22:11 64.1 °F 53.7 °F 29.78 in Calm     69 % 0.00 in 0.00 W/m2
22:16 64.1 °F 53.7 °F 29.78 in Calm     69 % 0.00 in 0.00 W/m2
22:21 64.0 °F 53.6 °F 29.78 in Calm     69 % 0.00 in 0.00 W/m2
22:26 64.0 °F 53.6 °F 29.78 in Calm     69 % 0.00 in 0.00 W/m2
22:31 64.0 °F 53.6 °F 29.78 in Calm     69 % 0.00 in 0.00 W/m2
22:37 64.0 °F 53.6 °F 29.78 in Calm     69 % 0.00 in 0.00 W/m2
22:42 64.0 °F 53.6 °F 29.78 in Calm     69 % 0.00 in 0.00 W/m2
22:47 63.8 °F 53.5 °F 29.78 in Calm     69 % 0.00 in 0.00 W/m2
22:52 63.8 °F 53.8 °F 29.78 in Calm     70 % 0.00 in 0.00 W/m2
22:57 63.6 °F 53.7 °F 29.78 in Calm     70 % 0.00 in 0.00 W/m2
23:02 63.6 °F 53.7 °F 29.78 in Calm     70 % 0.00 in 0.00 W/m2
23:07 63.5 °F 53.5 °F 29.78 in Calm     70 % 0.00 in 0.00 W/m2
23:12 63.5 °F 53.5 °F 29.78 in Calm     70 % 0.00 in 0.00 W/m2
23:17 63.5 °F 53.5 °F 29.78 in Calm     70 % 0.00 in 0.00 W/m2
23:22 63.5 °F 53.5 °F 29.78 in Calm     70 % 0.00 in 0.00 W/m2
23:27 63.5 °F 53.5 °F 29.78 in Calm     70 % 0.00 in 0.00 W/m2
23:32 63.4 °F 53.5 °F 29.78 in Calm     70 % 0.00 in 0.00 W/m2
23:37 63.4 °F 53.5 °F 29.78 in Calm     70 % 0.00 in 0.00 W/m2
23:42 63.4 °F 53.5 °F 29.78 in Calm     70 % 0.00 in 0.00 W/m2
23:47 63.5 °F 53.5 °F 29.78 in Calm     70 % 0.00 in 0.00 W/m2
23:52 63.5 °F 53.5 °F 29.78 in Calm     70 % 0.00 in 0.00 W/m2
23:57 63.5 °F 53.5 °F 29.78 in Calm     70 % 0.00 in 0.00 W/m2
Juneau County Weather
Compliments of Weather Underground - 4.5 mb
 WU-history PHP script courtesy of   Juneau County Weather.
powered by Cumulus v1.9.3 (1059)
Ambient Weather VWS v14.00
Top Contact Website Map Copyright © 2007 - 2018 Foresthillweather.com Never base important decisions on this or any weather information obtained from the Internet